Location: Moscow
(55.7500°N, 37.5830°E)
Time: 20:35:29
(UTC+03:00)

A-11 Canister half - Pass Details

Date: 09 December 2021
Orbit: 1516 x 1684 km, 47.2° (Epoch: 18 January)

Event Time Altitude Azimuth Distance (km) Brightness Sun altitude
Rises 06:23:00 0° 220° (SW) 4,734 11.3 -18.6°
Reaches altitude 10° 06:26:20 10° 212° (SSW) 3,775 10.9 -18.1°
Maximum altitude 06:34:47 37° 150° (SSE) 2,345 10.4 -17.0°
Drops below altitude 10° 06:43:29 10° 89° (E) 3,901 12.3 -15.8°
Sets 06:46:58 0° 81° (E) 4,908 12.8 -15.3°
